Theta_e
319 318 318 320 318 319 321 321 321 321 320 321 327 327 331 333 334 334 334 333 333 333 333 332 329 326 326 327 328 327 327 330 333 333 332 332 332 332 332 331 331 330 331 330
318 317 318 320 319 319 319 321 321 319 320 320 321 322 324 331 334 335 334 333 333 332 333 332 328 326 326 326 327 327 327 330 332 332 332 332 332 332 332 331 331 331 331 330
318 318 318 321 320 319 319 319 320 320 320 323 323 322 326 333 333 334 335 333 333 333 333 331 327 325 326 326 327 327 327 329 332 331 332 332 332 331 332 332 332 331 331 330
319 320 322 323 322 320 319 319 318 319 320 321 322 324 324 325 333 334 335 334 333 333 333 330 327 325 326 326 326 326 326 328 332 331 332 332 333 332 332 332 332 331 330 330
320 321 321 323 324 324 321 325 324 324 323 325 325 326 327 326 327 333 335 335 334 332 332 330 327 326 326 326 325 325 326 327 331 331 332 331 331 333 333 332 327 328 329 328
321 321 322 327 322 321 323 330 323 323 325 325 326 323 326 330 332 333 334 335 334 332 332 330 327 326 326 326 325 325 325 326 330 330 331 330 329 333 333 333 332 330 327 326
319 324 327 322 320 320 328 327 322 322 324 325 327 328 329 328 329 333 333 335 333 333 333 330 327 326 327 326 325 324 325 325 328 330 329 330 329 332 333 332 332 331 329 328
317 322 329 319 320 326 321 321 321 322 323 325 326 326 328 329 330 332 333 334 333 334 333 330 328 327 326 326 325 324 325 325 326 330 330 331 330 331 333 333 333 332 331 330
321 322 315 318 317 317 317 319 320 320 321 323 325 328 329 330 331 332 331 334 333 333 333 330 328 326 326 326 325 324 325 326 326 329 329 331 330 328 331 333 332 332 332 331
318 316 313 313 314 314 315 316 317 319 320 322 325 327 329 330 332 333 332 333 333 333 333 332 329 327 326 326 325 325 325 326 326 327 330 329 329 327 326 330 330 328 328 331
318 315 313 313 312 313 313 314 315 317 319 321 324 327 330 331 331 333 332 330 332 333 333 332 330 328 327 326 324 325 326 326 326 326 328 330 327 326 324 325 326 326 325 324
318 313 313 313 312 312 313 313 313 316 318 320 322 326 330 334 333 333 332 329 331 333 333 331 330 328 328 326 325 325 326 327 327 325 326 328 330 328 324 324 322 322 324 326
312 311 312 312 312 312 311 312 313 315 317 318 320 323 328 332 334 334 333 328 330 332 333 331 329 329 329 328 326 326 327 327 326 324 325 325 327 329 328 323 323 321 321 322
310 311 313 314 313 311 311 313 313 316 317 317 318 320 323 329 332 333 332 328 329 330 332 332 330 329 329 329 328 327 328 326 326 324 324 323 324 326 327 327 325 323 319 319
309 310 311 311 311 312 312 313 314 315 317 318 317 318 320 324 331 332 331 328 328 329 331 332 331 329 329 329 328 329 328 326 325 324 324 323 323 323 323 324 324 324 323 321
309 310 311 311 311 312 313 314 314 315 316 317 318 318 318 321 325 331 331 329 329 331 330 330 330 330 329 328 328 329 329 327 325 325 324 323 323 323 323 323 323 323 323 324
312 312 311 312 312 312 313 313 313 315 315 316 317 317 317 319 323 327 331 332 331 329 329 329 329 330 330 328 329 329 330 328 325 325 325 323 322 323 323 322 323 323 322 323
310 312 311 312 311 313 314 313 313 314 315 315 315 316 319 319 322 324 329 333 331 330 330 329 329 329 329 328 328 329 329 329 325 325 325 324 323 322 323 323 323 323 323 323
310 311 313 313 314 313 314 314 314 313 313 314 315 317 318 318 318 320 325 333 334 333 333 331 328 327 329 328 328 329 329 328 326 326 326 325 324 323 322 323 323 323 323 323
310 310 311 312 312 314 315 314 315 314 314 314 314 315 317 318 317 319 321 329 330 331 330 333 331 327 328 328 325 328 328 328 327 326 326 326 326 325 324 323 323 323 323 323
311 312 312 311 311 312 312 312 314 316 315 314 314 315 315 316 318 317 320 324 328 325 325 329 331 329 327 327 324 326 328 327 327 326 326 326 326 326 326 326 325 324 323 323
310 310 310 311 312 312 311 311 312 313 314 314 314 314 314 315 317 318 318 319 321 321 323 328 331 331 330 327 326 325 327 327 327 327 327 326 326 327 326 327 327 326 326 325
310 309 310 310 311 311 310 308 308 308 310 314 316 315 315 315 316 318 320 318 319 320 319 321 328 327 324 326 326 326 327 327 328 327 327 327 327 326 327 327 327 327 327 327
309 309 309 311 311 310 310 309 309 309 309 309 309 312 315 317 316 317 318 319 321 319 317 318 324 325 325 327 330 328 328 328 328 327 327 328 327 327 327 328 328 327 327 327
309 308 309 310 312 312 311 309 308 308 307 306 306 307 310 313 316 317 317 318 320 319 319 320 322 325 323 324 327 331 332 331 330 330 329 328 328 328 328 327 329 328 327 327
308 308 308 308 309 310 310 309 310 307 305 305 304 304 306 309 313 315 317 317 317 317 317 317 322 325 326 326 329 331 330 331 330 329 330 330 329 328 327 326 327 327 326 326
306 307 307 307 307 307 309 308 307 305 304 303 303 302 302 305 311 315 316 317 317 317 317 317 317 323 326 328 331 332 332 331 330 328 328 327 328 327 327 326 327 327 326 325
Wind_Speed
13 8 7 13 25 23 26 19 15 14 18 14 11 8 6 9 15 17 18 20 19 18 17 16 20 19 18 16 15 12 10 9 7 6 7 7 8 9 9 10 10 10 10 9
16 14 8 8 13 26 23 22 21 11 13 13 14 11 6 6 15 18 18 19 20 19 18 17 20 20 19 17 16 13 10 9 8 8 9 8 9 9 10 11 11 11 10 9
17 16 7 10 13 19 21 19 21 19 16 3 2 5 7 2 14 18 19 20 21 20 18 19 22 22 20 19 17 15 12 10 10 9 11 10 10 11 11 11 10 10 10 9
13 11 11 9 1 14 18 20 20 16 15 12 6 9 13 6 12 13 16 18 19 18 18 22 23 23 21 20 19 16 13 12 12 11 12 10 10 12 11 11 9 8 11 11
7 12 8 8 8 3 9 7 7 8 10 11 12 12 14 8 4 14 13 14 16 24 25 25 24 24 23 21 20 18 15 14 13 12 12 11 10 12 11 11 9 8 10 11
5 15 14 9 8 4 4 8 8 6 5 6 7 10 2 12 12 6 12 12 16 25 26 26 26 26 24 22 21 19 18 16 15 14 13 11 10 11 12 12 11 11 12 13
6 7 7 11 10 4 11 4 9 7 8 7 7 9 16 12 10 11 9 14 20 25 27 28 29 28 25 23 22 21 19 17 17 15 14 12 10 10 13 13 13 14 13 13
3 5 6 15 2 4 7 7 9 9 10 11 12 12 14 12 9 7 6 15 22 22 25 29 30 29 26 24 23 22 21 19 18 17 16 14 12 11 12 13 13 14 14 14
4 4 8 4 10 10 9 9 11 12 13 13 14 12 12 11 10 7 7 12 22 22 24 28 31 31 27 26 25 24 23 21 19 19 17 16 15 14 13 14 13 14 13 14
2 5 7 5 10 11 13 12 14 12 13 14 15 15 13 10 8 7 9 13 21 23 23 26 31 31 28 28 27 26 24 23 21 20 19 18 16 16 14 14 14 13 13 13
1 6 6 2 12 15 16 14 15 14 14 14 15 15 13 11 9 8 9 15 21 23 24 28 31 31 29 30 30 27 25 25 23 21 21 19 18 18 16 15 13 13 12 14
3 5 2 9 15 16 14 16 17 16 16 15 14 15 14 11 9 8 9 14 19 24 25 28 31 31 32 32 33 30 27 26 25 23 23 21 20 15 14 14 17 12 11 11
8 14 14 13 12 6 16 17 15 17 15 15 15 15 17 13 11 10 11 15 20 25 30 30 32 33 33 34 35 33 29 27 26 25 24 23 22 20 19 14 17 18 16 16
16 13 13 7 12 14 14 16 14 16 13 14 15 17 16 15 13 10 9 16 19 22 25 29 31 34 35 35 36 34 32 32 27 28 25 24 24 22 20 21 20 18 22 19
11 14 14 15 15 14 12 13 15 13 14 14 16 15 17 17 15 11 10 11 15 19 23 27 30 32 35 35 36 35 33 30 29 27 25 25 24 23 22 21 21 21 21 22
14 17 14 13 13 13 12 12 13 13 14 14 14 16 18 19 18 16 10 7 11 12 20 26 30 33 36 36 35 33 33 32 33 26 25 25 24 24 23 22 21 21 23 23
12 11 13 12 12 13 13 12 11 13 14 14 15 20 20 18 17 16 15 8 7 11 15 20 22 26 31 35 36 34 32 31 34 27 26 26 26 25 24 24 23 23 23 23
10 10 11 12 12 13 13 11 12 12 12 16 17 19 15 14 14 14 17 11 4 4 6 11 16 21 27 30 33 32 32 31 34 33 28 27 27 26 25 25 24 24 23 22
11 12 11 10 10 11 12 13 12 15 14 16 14 12 16 15 16 17 18 12 7 3 5 3 6 12 23 27 29 29 30 30 30 33 31 28 27 27 27 27 26 25 25 25
9 13 14 12 15 15 12 14 16 14 14 14 15 14 13 15 16 15 16 10 9 8 7 4 3 12 17 21 28 27 27 28 28 29 31 31 30 30 29 28 28 27 27 27
18 11 12 12 13 16 18 20 19 15 14 13 14 11 13 16 16 15 10 7 8 13 14 6 3 6 14 15 23 28 26 26 27 27 29 29 28 27 28 28 28 28 28 28
15 15 13 15 13 14 19 19 19 19 16 13 13 15 14 13 14 13 10 9 11 12 13 11 7 4 7 14 19 27 24 24 25 25 25 26 26 23 23 23 25 26 28 28
14 16 17 15 13 17 21 19 20 21 23 21 16 14 15 14 13 9 8 8 9 13 14 13 12 13 9 13 18 23 22 22 22 22 22 20 20 17 13 14 19 23 25 27
15 15 14 17 18 17 15 20 20 20 21 20 18 20 20 15 16 13 12 14 11 10 12 14 13 15 11 7 12 16 18 19 21 23 25 27 25 26 23 22 20 23 25 25
14 14 14 15 12 10 18 21 17 21 25 23 25 22 20 20 19 18 15 13 13 12 11 12 13 14 10 13 19 19 18 21 23 24 24 23 26 22 17 21 22 22 23 24
13 12 13 14 15 17 17 20 17 21 23 21 23 24 24 20 20 20 19 18 17 15 15 12 9 9 10 12 17 18 20 23 22 23 27 23 19 17 16 19 18 16 22 22
10 9 15 15 16 16 16 17 18 18 22 23 20 25 26 25 18 20 20 19 17 16 15 14 11 11 12 12 15 17 17 18 20 22 24 23 20 17 12 12 14 13 16 18
Wind_Direction
245 303 304 262 206 199 205 214 224 192 221 239 171 81 61 157 167 164 161 166 163 166 166 161 167 170 171 168 165 162 163 160 146 142 143 137 122 125 130 140 142 139 135 131
238 241 240 235 240 205 204 206 226 216 228 240 268 283 260 196 182 174 169 169 166 168 167 167 169 173 171 167 165 162 163 157 155 146 153 140 134 133 134 132 139 142 138 131
226 212 209 223 210 215 204 208 218 220 232 190 211 238 266 130 195 183 174 170 170 173 171 169 172 174 171 167 165 165 166 154 157 150 155 147 143 136 132 133 135 135 130 130
232 166 213 90 45 206 211 209 223 230 232 247 258 354 325 297 186 201 181 174 174 173 170 171 173 174 170 166 169 169 168 160 159 159 153 146 144 138 140 138 136 143 134 139
235 196 134 110 38 333 202 142 360 300 289 327 324 316 276 293 275 205 194 182 180 173 169 169 174 172 170 168 173 174 171 165 165 159 157 152 148 146 144 136 135 144 152 142
255 210 208 46 356 330 264 167 21 349 328 321 318 253 189 11 358 309 190 189 179 173 169 170 174 173 172 172 177 179 174 170 168 162 156 154 149 146 152 140 120 129 138 156
261 229 103 8 344 186 211 78 352 342 337 320 287 315 321 322 321 318 213 185 184 179 173 172 172 174 177 176 181 181 175 172 170 167 164 154 150 148 154 153 126 128 130 139
241 255 153 360 17 327 22 357 354 345 341 325 311 306 301 305 296 293 222 188 184 183 177 173 173 176 180 180 181 179 177 175 172 171 173 163 157 153 157 153 147 137 138 137
5 36 332 318 59 49 12 356 351 343 341 327 319 315 310 300 290 268 252 199 185 186 181 177 177 181 182 181 180 179 177 178 176 176 178 172 167 163 160 165 160 158 157 142
279 29 340 37 20 14 359 350 336 340 335 330 328 323 314 305 290 258 233 208 191 187 185 183 182 184 185 178 180 179 179 179 179 181 181 178 178 176 173 175 172 171 164 156
337 45 349 261 344 341 339 343 338 338 338 339 332 330 323 311 293 269 247 201 203 195 191 187 185 184 184 180 180 181 181 181 181 185 186 183 191 185 186 187 185 178 170 165
6 15 281 300 308 323 326 337 331 335 333 342 337 338 332 318 304 279 256 209 208 202 195 189 187 187 184 182 181 181 183 184 186 186 185 190 192 190 199 187 193 193 176 178
303 309 309 294 308 323 329 322 324 322 325 338 344 341 347 333 316 309 263 232 205 206 200 191 189 188 188 184 183 184 186 186 187 192 185 191 195 195 192 199 195 197 194 194
306 305 303 316 320 320 316 317 322 317 327 335 344 346 348 344 337 318 255 236 211 214 206 196 191 192 190 188 187 188 188 185 189 195 190 192 194 198 200 195 198 202 207 199
332 317 300 299 300 303 320 318 318 323 332 334 343 350 349 345 343 338 308 252 212 208 211 200 196 196 191 191 190 190 190 188 193 194 195 197 193 197 201 203 200 202 196 204
306 303 303 302 298 305 318 323 317 319 323 329 338 343 345 341 345 351 346 287 214 209 212 206 201 198 192 191 190 192 194 193 192 193 195 197 200 198 199 203 203 206 202 200
300 304 313 313 314 311 310 315 313 312 316 318 330 333 338 345 349 356 356 350 294 217 215 214 212 206 196 191 188 191 191 191 193 194 198 197 201 203 203 202 204 206 210 207
322 308 283 288 299 306 307 307 306 309 310 315 319 326 333 342 346 351 352 351 0 231 241 223 211 209 199 198 195 193 191 190 191 198 198 199 202 204 208 209 209 209 210 209
355 351 348 320 312 308 306 308 305 301 305 306 310 320 323 325 339 348 351 354 22 102 61 285 251 220 203 202 199 206 195 193 193 198 200 200 199 205 208 212 213 215 215 211
11 4 1 353 349 342 327 319 312 299 298 299 304 306 317 322 328 334 347 345 26 18 338 343 275 209 210 207 199 210 203 203 198 203 201 199 202 205 209 211 212 215 216 220
6 5 357 19 352 345 357 354 339 314 303 296 296 296 305 312 313 318 326 335 1 5 352 329 317 196 206 210 196 214 210 204 206 206 206 206 204 207 211 214 215 221 218 218
4 14 13 355 355 357 6 1 349 339 317 304 296 293 293 302 305 306 301 311 332 356 350 343 334 297 259 203 206 209 216 206 210 206 207 204 208 206 214 221 229 221 228 226
1 8 6 7 357 360 13 10 6 1 353 338 317 303 296 294 298 296 298 303 323 326 330 329 318 308 296 231 220 209 205 207 211 207 194 194 191 200 218 230 242 240 235 230
3 4 360 356 359 8 17 12 359 354 351 345 333 320 306 292 286 274 278 279 297 316 312 314 311 314 273 243 229 219 205 203 201 197 192 188 189 186 193 197 217 250 246 241
356 4 14 1 358 355 359 355 357 353 353 348 341 332 310 288 276 277 274 269 274 291 296 302 310 314 282 255 253 243 223 214 210 208 211 221 217 224 202 219 221 205 235 244
344 358 2 19 2 355 1 6 5 1 350 343 340 338 328 307 284 274 267 265 262 267 276 284 281 283 268 250 256 248 243 240 229 224 229 231 218 202 200 218 227 221 224 233
344 7 351 10 1 357 358 12 18 4 352 344 337 345 342 336 301 286 277 268 262 256 255 262 268 259 265 256 262 249 247 242 234 232 231 229 226 220 213 222 228 219 231 229